| time (UTC) | temp F | wind direction | speed knots | gust knots | rain 1hr in | rain 24hr in | rain mn in | humidity % | barometer mb |
| 20260504150652 | 56 | 287 | 5.2 | 6.1 | 0.00 | 0.00 | 0.00 | 69 | 1017.9 |
| 20260504150149 | 56 | 309 | 7.8 | 8.7 | 0.00 | 0.00 | 0.00 | 68 | 1018.0 |
| 20260504141118 | 57 | 269 | 8.7 | 11.3 | 0.00 | 0.05 | 0.05 | 71 | 1017.6 |
| 20260504140615 | 57 | 327 | 7.0 | 14.8 | 0.00 | 0.05 | 0.05 | 70 | 1017.4 |
| 20260504140110 | 57 | 294 | 4.3 | 11.3 | 0.00 | 0.05 | 0.05 | 71 | 1017.4 |
| 20260504130539 | 58 | 303 | 7.0 | 9.6 | 0.00 | 0.05 | 0.05 | 71 | 1017.6 |
| 20260504110426 | 59 | 304 | 7.8 | 11.3 | 0.00 | 0.05 | 0.05 | 71 | 1015.1 |
| 20260504100343 | 60 | 275 | 5.2 | 8.7 | 0.00 | 0.05 | 0.05 | 70 | 1013.7 |
| 20260504081737 | 65 | 30 | 10.4 | 14.8 | 0.00 | 0.05 | 0.05 | 63 | 1011.2 |
| 20260504081233 | 68 | 350 | 12.2 | 15.6 | 0.00 | 0.05 | 0.05 | 59 | 1011.0 |
| 20260504080730 | 69 | 277 | 8.7 | 13.9 | 0.00 | 0.05 | 0.05 | 44 | 1010.6 |
| 20260504080226 | 69 | 313 | 10.4 | 15.6 | 0.00 | 0.05 | 0.05 | 43 | 1010.4 |
| 20260504070153 | 71 | 316 | 7.8 | 12.2 | 0.00 | 0.05 | 0.05 | 44 | 1009.4 |
| 20260504060114 | 71 | 268 | 7.8 | 15.6 | 0.00 | 0.05 | 0.05 | 42 | 1008.5 |
| 20260504050542 | 71 | 280 | 10.4 | 14.8 | 0.00 | 0.05 | 0.05 | 41 | 1008.3 |
| 20260504045536 | 70 | 271 | 8.7 | 14.8 | 0.00 | 0.05 | 0.05 | 40 | 1008.0 |
| 20260504045031 | 71 | 289 | 9.6 | 14.8 | 0.00 | 0.05 | 0.05 | 40 | 1008.0 |
| 20260504044529 | 71 | 286 | 7.8 | 13.9 | 0.00 | 0.05 | 0.05 | 41 | 1008.0 |
| 20260504044026 | 71 | 303 | 5.2 | 8.7 | 0.00 | 0.05 | 0.05 | 43 | 1007.7 |
| 20260504043523 | 71 | 273 | 7.0 | 8.7 | 0.00 | 0.05 | 0.05 | 42 | 1007.8 |
| 20260504043020 | 71 | 264 | 8.7 | 8.7 | 0.00 | 0.05 | 0.05 | 42 | 1007.8 |
| 20260504042517 | 72 | 280 | 7.8 | 14.8 | 0.00 | 0.05 | 0.05 | 40 | 1007.6 |
| 20260504042014 | 72 | 275 | 8.7 | 12.2 | 0.00 | 0.05 | 0.05 | 39 | 1007.6 |
| 20260504041510 | 72 | 265 | 6.1 | 7.8 | 0.00 | 0.05 | 0.05 | 43 | 1007.7 |
| 20260504041006 | 72 | 260 | 6.1 | 13.0 | 0.00 | 0.05 | 0.05 | 42 | 1007.8 |
| 20260504040504 | 73 | 290 | 7.8 | 13.0 | 0.00 | 0.05 | 0.05 | 44 | 1007.6 |
| 20260504035959 | 73 | 270 | 4.3 | 8.7 | 0.00 | 0.05 | 0.05 | 46 | 1007.7 |
| 20260504035457 | 72 | 238 | 9.6 | 13.0 | 0.00 | 0.05 | 0.05 | 43 | 1007.9 |
| 20260504034953 | 73 | 304 | 9.6 | 14.8 | 0.00 | 0.05 | 0.05 | 46 | 1007.7 |
| 20260504034451 | 72 | 277 | 7.8 | 16.5 | 0.00 | 0.05 | 0.05 | 47 | 1007.6 |
| 20260504033948 | 72 | 321 | 3.5 | 9.6 | 0.00 | 0.05 | 0.05 | 48 | 1007.5 |
| 20260504033446 | 71 | 274 | 8.7 | 11.3 | 0.00 | 0.05 | 0.05 | 47 | 1007.7 |
| 20260504032943 | 72 | 268 | 12.2 | 15.6 | 0.00 | 0.05 | 0.05 | 46 | 1007.6 |
| 20260504032440 | 72 | 269 | 7.0 | 14.8 | 0.00 | 0.05 | 0.05 | 50 | 1007.7 |
| 20260504031936 | 72 | 295 | 5.2 | 7.8 | 0.00 | 0.05 | 0.05 | 48 | 1007.6 |
| 20260504031433 | 71 | 287 | 7.8 | 11.3 | 0.00 | 0.05 | 0.05 | 50 | 1007.5 |
| 20260504030930 | 71 | 315 | 8.7 | 13.0 | 0.00 | 0.05 | 0.05 | 50 | 1007.7 |
| 20260504030427 | 71 | 264 | 14.8 | 16.5 | 0.00 | 0.05 | 0.05 | 46 | 1007.6 |
| 20260504025923 | 70 | 293 | 14.8 | 20.9 | 0.00 | 0.05 | 0.05 | 51 | 1007.2 |
| 20260504025420 | 69 | 299 | 13.9 | 19.1 | 0.00 | 0.05 | 0.05 | 53 | 1007.6 |
| 20260504024917 | 70 | 274 | 12.2 | 19.1 | 0.00 | 0.05 | 0.05 | 54 | 1007.2 |
| 20260504024414 | 70 | 289 | 15.6 | 20.0 | 0.00 | 0.05 | 0.05 | 53 | 1007.2 |
| 20260504023911 | 71 | 258 | 13.9 | 19.1 | 0.00 | 0.05 | 0.05 | 52 | 1007.3 |
| 20260504023407 | 71 | 264 | 7.8 | 16.5 | 0.00 | 0.05 | 0.05 | 52 | 1007.2 |
| 20260504022903 | 71 | 291 | 13.9 | 15.6 | 0.00 | 0.05 | 0.05 | 52 | 1007.1 |
| 20260504022400 | 71 | 132 | 10.4 | 13.9 | 0.00 | 0.05 | 0.05 | 53 | 1007.4 |
| 20260504021856 | 71 | 299 | 6.1 | 18.2 | 0.00 | 0.05 | 0.05 | 57 | 1007.4 |
| 20260504021354 | 71 | 270 | 12.2 | 16.5 | 0.00 | 0.05 | 0.05 | 53 | 1007.3 |
| 20260504020850 | 71 | 275 | 11.3 | 14.8 | 0.00 | 0.05 | 0.05 | 53 | 1007.2 |
| 20260504020347 | 72 | 43 | 5.2 | 12.2 | 0.00 | 0.05 | 0.05 | 56 | 1007.4 |
| 20260504015843 | 71 | 298 | 9.6 | 11.3 | 0.00 | 0.05 | 0.05 | 55 | 1007.2 |
| 20260504015340 | 70 | 298 | 7.8 | 18.2 | 0.00 | 0.05 | 0.05 | 56 | 1007.4 |
| 20260504014836 | 70 | 288 | 14.8 | 15.6 | 0.00 | 0.05 | 0.05 | 54 | 1007.4 |
| 20260504014332 | 70 | 313 | 10.4 | 16.5 | 0.00 | 0.05 | 0.05 | 54 | 1007.2 |
| 20260504013830 | 70 | 289 | 14.8 | 20.9 | 0.00 | 0.05 | 0.05 | 54 | 1007.3 |
| 20260504013327 | 71 | 296 | 10.4 | 15.6 | 0.00 | 0.05 | 0.05 | 55 | 1007.3 |
| 20260504012824 | 71 | 283 | 7.8 | 13.0 | 0.00 | 0.05 | 0.05 | 54 | 1007.4 |
| 20260504012322 | 71 | 273 | 13.0 | 18.2 | 0.00 | 0.05 | 0.05 | 53 | 1007.6 |
| 20260504011819 | 70 | 271 | 11.3 | 16.5 | 0.00 | 0.05 | 0.05 | 55 | 1007.4 |
| 20260504011315 | 70 | 245 | 7.8 | 11.3 | 0.00 | 0.05 | 0.05 | 56 | 1007.3 |
| 20260504010811 | 69 | 273 | 9.6 | 11.3 | 0.00 | 0.05 | 0.05 | 56 | 1007.4 |
| 20260504010307 | 69 | 315 | 11.3 | 18.2 | 0.00 | 0.05 | 0.05 | 55 | 1007.0 |
| 20260504005804 | 70 | 256 | 11.3 | 16.5 | 0.00 | 0.05 | 0.05 | 55 | 1007.3 |
| 20260504005301 | 70 | 286 | 7.0 | 11.3 | 0.00 | 0.05 | 0.05 | 56 | 1007.2 |
| 20260504004759 | 70 | 336 | 7.8 | 11.3 | 0.00 | 0.05 | 0.05 | 57 | 1007.3 |
| 20260504004256 | 70 | 276 | 12.2 | 14.8 | 0.00 | 0.05 | 0.05 | 56 | 1007.1 |
| 20260504003752 | 69 | 300 | 5.2 | 11.3 | 0.00 | 0.05 | 0.05 | 61 | 1007.3 |
| 20260504003249 | 69 | 286 | 8.7 | 12.2 | 0.00 | 0.05 | 0.05 | 60 | 1007.0 |
| 20260504002745 | 69 | 277 | 11.3 | 16.5 | 0.00 | 0.05 | 0.05 | 60 | 1007.2 |
| 20260504002242 | 69 | 305 | 7.0 | 11.3 | 0.00 | 0.05 | 0.05 | 61 | 1007.4 |
| 20260504001740 | 69 | 323 | 7.0 | 8.7 | 0.00 | 0.05 | 0.05 | 62 | 1007.2 |
| 20260504001237 | 69 | 292 | 13.0 | 18.2 | 0.00 | 0.05 | 0.05 | 60 | 1007.1 |
| 20260504000733 | 69 | 265 | 10.4 | 16.5 | 0.00 | 0.05 | 0.05 | 61 | 1006.9 |
| 20260504000231 | 69 | 300 | 10.4 | 13.9 | 0.00 | 0.05 | 0.05 | 62 | 1006.9 |
| 20260503235729 | 69 | 294 | 12.2 | 14.8 | 0.00 | 0.05 | 0.05 | 61 | 1006.9 |
| 20260503235226 | 69 | 279 | 7.8 | 12.2 | 0.00 | 0.05 | 0.05 | 63 | 1006.7 |
| 20260503234724 | 69 | 295 | 4.3 | 7.0 | 0.00 | 0.05 | 0.05 | 63 | 1006.4 |
| 20260503234222 | 69 | 103 | 0.9 | 3.5 | 0.00 | 0.05 | 0.05 | 68 | 1006.4 |
| 20260503233718 | 68 | 195 | 1.7 | 5.2 | 0.00 | 0.05 | 0.05 | 70 | 1006.7 |
| 20260503233214 | 67 | 262 | 2.6 | 5.2 | 0.00 | 0.05 | 0.05 | 72 | 1006.8 |
| 20260503232711 | 67 | 295 | 1.7 | 2.6 | 0.00 | 0.05 | 0.05 | 71 | 1006.8 |
| 20260503232208 | 66 | 349 | 2.6 | 7.0 | 0.00 | 0.05 | 0.05 | 70 | 1006.7 |
| 20260503231707 | 66 | 207 | 2.6 | 6.1 | 0.00 | 0.05 | 0.05 | 72 | 1006.7 |
| 20260503231203 | 66 | 253 | 6.1 | 7.8 | 0.00 | 0.05 | 0.05 | 72 | 1006.8 |
| 20260503230659 | 66 | 291 | 2.6 | 3.5 | 0.00 | 0.05 | 0.05 | 75 | 1006.9 |
| 20260503230156 | 66 | 183 | 2.6 | 5.2 | 0.00 | 0.05 | 0.05 | 74 | 1006.7 |
| 20260503225654 | 66 | 277 | 4.3 | 5.2 | 0.00 | 0.05 | 0.05 | 74 | 1006.7 |
| 20260503225153 | 66 | 297 | 6.1 | 8.7 | 0.00 | 0.05 | 0.05 | 73 | 1006.5 |
| 20260503224651 | 66 | 267 | 5.2 | 11.3 | 0.00 | 0.05 | 0.05 | 73 | 1006.8 |
| 20260503224149 | 66 | 282 | 7.0 | 8.7 | 0.00 | 0.05 | 0.05 | 74 | 1006.5 |
| 20260503223647 | 66 | 297 | 10.4 | 14.8 | 0.00 | 0.05 | 0.05 | 73 | 1006.7 |
| 20260503223143 | 66 | 273 | 6.1 | 13.9 | 0.00 | 0.05 | 0.05 | 75 | 1006.7 |
| 20260503222640 | 66 | 270 | 6.1 | 7.8 | 0.00 | 0.05 | 0.05 | 77 | 1006.5 |
| 20260503222137 | 66 | 317 | 6.1 | 9.6 | 0.00 | 0.05 | 0.05 | 77 | 1006.4 |
| 20260503221636 | 66 | 278 | 7.0 | 7.8 | 0.00 | 0.05 | 0.05 | 78 | 1006.1 |
| 20260503221133 | 65 | 274 | 5.2 | 8.7 | 0.00 | 0.05 | 0.05 | 79 | 1005.7 |
| 20260503220630 | 65 | 231 | 2.6 | 6.1 | 0.00 | 0.05 | 0.05 | 83 | 1005.6 |
| 20260503220126 | 65 | 173 | 0.0 | 2.6 | 0.00 | 0.05 | 0.05 | 84 | 1005.5 |
| 20260503215623 | 65 | 189 | 0.0 | 0.0 | 0.00 | 0.05 | 0.05 | 86 | 1005.6 |
| 20260503215120 | 65 | 277 | 1.7 | 2.6 | 0.00 | 0.05 | 0.05 | 84 | 1005.2 |
| 20260503214619 | 65 | 198 | 0.9 | 1.7 | 0.00 | 0.05 | 0.05 | 85 | 1005.4 |
| 20260503214115 | 65 | 196 | 0.9 | 1.7 | 0.00 | 0.05 | 0.05 | 84 | 1005.6 |
| 20260503213614 | 65 | 229 | 0.9 | 0.9 | 0.00 | 0.05 | 0.05 | 84 | 1005.5 |
| 20260503213110 | 65 | 241 | 1.7 | 2.6 | 0.00 | 0.05 | 0.05 | 83 | 1005.3 |
| 20260503212608 | 65 | 289 | 3.5 | 5.2 | 0.00 | 0.05 | 0.05 | 83 | 1005.2 |
| 20260503212105 | 65 | 257 | 1.7 | 5.2 | 0.00 | 0.05 | 0.05 | 83 | 1005.0 |
| 20260503211602 | 65 | 354 | 1.7 | 2.6 | 0.00 | 0.05 | 0.05 | 83 | 1005.1 |
| 20260503211057 | 65 | 315 | 2.6 | 3.5 | 0.00 | 0.05 | 0.05 | 83 | 1005.0 |
| 20260503210554 | 65 | 273 | 1.7 | 2.6 | 0.00 | 0.05 | 0.05 | 82 | 1005.0 |
| 20260503210050 | 65 | 4 | 1.7 | 7.0 | 0.00 | 0.05 | 0.05 | 82 | 1005.0 |
| 20260503205547 | 65 | 267 | 3.5 | 6.1 | 0.00 | 0.05 | 0.05 | 82 | 1004.7 |
| 20260503205043 | 65 | 310 | 5.2 | 9.6 | 0.00 | 0.05 | 0.05 | 82 | 1004.9 |
| 20260503204540 | 65 | 316 | 3.5 | 6.1 | 0.00 | 0.05 | 0.05 | 82 | 1004.7 |
| 20260503204037 | 65 | 251 | 5.2 | 7.8 | 0.00 | 0.05 | 0.05 | 83 | 1004.5 |
| 20260503203534 | 65 | 269 | 5.2 | 6.1 | 0.00 | 0.05 | 0.05 | 85 | 1004.6 |
| 20260503203031 | 65 | 270 | 6.1 | 7.8 | 0.00 | 0.05 | 0.05 | 85 | 1004.5 |
| 20260503202529 | 65 | 287 | 7.8 | 11.3 | 0.00 | 0.05 | 0.05 | 84 | 1004.6 |
| 20260503202027 | 66 | 263 | 8.7 | 13.9 | 0.00 | 0.05 | 0.05 | 83 | 1004.5 |
| 20260503201525 | 66 | 281 | 6.1 | 9.6 | 0.00 | 0.05 | 0.05 | 83 | 1004.3 |
| 20260503201022 | 67 | 309 | 5.2 | 7.0 | 0.00 | 0.05 | 0.05 | 84 | 1004.4 |
| 20260503200518 | 67 | 285 | 6.1 | 7.0 | 0.00 | 0.05 | 0.05 | 85 | 1004.2 |
| 20260503200015 | 67 | 268 | 4.3 | 7.8 | 0.00 | 0.05 | 0.05 | 87 | 1004.2 |
| 20260503195512 | 67 | 267 | 4.3 | 7.8 | 0.00 | 0.05 | 0.05 | 87 | 1004.1 |
| 20260503195009 | 67 | 309 | 5.2 | 7.0 | 0.00 | 0.05 | 0.05 | 89 | 1004.1 |
| 20260503194506 | 67 | 298 | 3.5 | 5.2 | 0.00 | 0.05 | 0.05 | 90 | 1004.0 |
| 20260503194000 | 67 | 307 | 2.6 | 2.6 | 0.00 | 0.05 | 0.05 | 92 | 1003.9 |
| 20260503193457 | 67 | 345 | 1.7 | 2.6 | 0.00 | 0.05 | 0.05 | 93 | 1003.8 |
| 20260503192952 | 67 | 103 | 0.9 | 2.6 | 0.00 | 0.05 | 0.05 | 93 | 1003.5 |
| 20260503192449 | 67 | 276 | 1.7 | 2.6 | 0.00 | 0.05 | 0.05 | 94 | 1003.7 |
| 20260503191944 | 66 | 265 | 1.7 | 2.6 | 0.00 | 0.05 | 0.05 | 95 | 1003.6 |
| 20260503191442 | 66 | 264 | 1.7 | 2.6 | 0.00 | 0.05 | 0.05 | 96 | 1003.5 |
| 20260503190938 | 66 | 166 | 0.9 | 2.6 | 0.00 | 0.05 | 0.05 | 96 | 1003.6 |
| 20260503190436 | 66 | 76 | 0.0 | 0.9 | 0.00 | 0.05 | 0.05 | 96 | 1003.4 |
| 20260503185933 | 66 | 133 | 0.0 | 0.0 | 0.00 | 0.05 | 0.05 | 96 | 1003.3 |
| 20260503185429 | 66 | 102 | 0.0 | 0.0 | 0.00 | 0.05 | 0.05 | 96 | 1002.8 |
| 20260503184928 | 66 | 182 | 0.0 | 0.0 | 0.00 | 0.05 | 0.05 | 96 | 1003.0 |
| 20260503184425 | 66 | 121 | 0.0 | 0.0 | 0.00 | 0.05 | 0.05 | 96 | 1003.0 |
| 20260503183922 | 66 | 129 | 0.0 | 0.9 | 0.00 | 0.05 | 0.05 | 96 | 1002.7 |
| 20260503183418 | 66 | 76 | 0.0 | 0.0 | 0.00 | 0.05 | 0.05 | 96 | 1003.3 |
| 20260503182915 | 66 | 53 | 0.9 | 1.7 | 0.00 | 0.05 | 0.05 | 96 | 1003.4 |
| 20260503182414 | 66 | 165 | 0.0 | 0.0 | 0.00 | 0.05 | 0.05 | 96 | 1003.3 |
| 20260503181911 | 66 | 144 | 0.0 | 0.0 | 0.00 | 0.05 | 0.05 | 96 | 1003.1 |
| 20260503181408 | 66 | 144 | 0.0 | 0.0 | 0.00 | 0.05 | 0.05 | 96 | 1003.1 |
| 20260503180904 | 66 | 143 | 0.0 | 0.9 | 0.00 | 0.05 | 0.05 | 96 | 1003.0 |
| 20260503180403 | 66 | 168 | 0.0 | 0.0 | 0.00 | 0.05 | 0.05 | 96 | 1002.8 |
| 20260503175858 | 66 | 168 | 0.0 | 0.0 | 0.00 | 0.05 | 0.05 | 96 | 1002.7 |
| 20260503175357 | 66 | 167 | 0.0 | 1.7 | 0.00 | 0.05 | 0.05 | 95 | 1002.8 |
| 20260503174857 | 66 | 172 | 0.0 | 0.0 | 0.00 | 0.05 | 0.05 | 95 | 1002.6 |
| 20260503174356 | 66 | 287 | 1.7 | 1.7 | 0.05 | 0.05 | 0.05 | 95 | 1002.6 |
| 20260503173856 | 66 | 198 | 0.0 | 0.9 | 0.12 | 0.05 | 0.05 | 95 | 1003.0 |
| 20260503173353 | 66 | 167 | 0.9 | 1.7 | 0.12 | 0.04 | 0.04 | 94 | 1003.0 |
| 20260503172850 | 65 | 170 | 0.0 | 0.9 | 0.12 | 0.03 | 0.03 | 94 | 1002.7 |
| 20260503172348 | 66 | 293 | 2.6 | 5.2 | 0.07 | 0.02 | 0.02 | 94 | 1002.6 |
| 20260503171843 | 66 | 340 | 4.3 | 7.0 | 0.00 | 0.01 | 0.01 | 93 | 1002.7 |
| 20260503171340 | 66 | 312 | 5.2 | 8.7 | 0.00 | 0.01 | 0.01 | 93 | 1002.5 |
| 20260503170838 | 66 | 266 | 4.3 | 7.8 | 0.00 | 0.01 | 0.01 | 93 | 1002.5 |
| 20260503170334 | 66 | 274 | 2.6 | 7.0 | 0.00 | 0.01 | 0.01 | 92 | 1002.2 |